This is the latest recevied weather packets stored in our database for station/object KC5DAQ-29. If no packets are shown the sender has not sent any weather packets the latest 1 day(s).
| Time | Temp. | Humidity | Pressure | Rain* | Wind** | Luminosity | Snow |
|---|---|---|---|---|---|---|---|
| 1778038324 | 25.56° C | 100% | 1006.6 hPa | 0 mm | 1.34 m/s, 158° | 0 W/m² | - |
| 1778038262 | 25.56° C | 100% | 1006.6 hPa | 0 mm | 1.34 m/s, 164° | 0 W/m² | - |
| 1778038204 | 25.56° C | 100% | 1006.5 hPa | 0 mm | 1.34 m/s, 124° | 0 W/m² | - |
| 1778038144 | 25.56° C | 100% | 1006.6 hPa | 0 mm | 0.45 m/s, 145° | 0 W/m² | - |
| 1778038083 | 25.56° C | 100% | 1006.5 hPa | 0 mm | 0.45 m/s, 125° | 0 W/m² | - |
| 1778038022 | 25.56° C | 100% | 1006.4 hPa | 0 mm | 0.89 m/s, 165° | 0 W/m² | - |
| 1778037962 | 25.56° C | 100% | 1006.4 hPa | 0 mm | 0.45 m/s, 148° | 0 W/m² | - |
| 1778037903 | 25.56° C | 100% | 1006.5 hPa | 0 mm | 0.89 m/s, 151° | 0 W/m² | - |
| 1778037843 | 25.56° C | 100% | 1006.4 hPa | 0 mm | 1.34 m/s, 149° | 0 W/m² | - |
| 1778037783 | 25.56° C | 100% | 1006.4 hPa | 0 mm | 1.34 m/s, 165° | 0 W/m² | - |
| 1778037722 | 25.56° C | 100% | 1006.4 hPa | 0 mm | 0.45 m/s, 130° | 0 W/m² | - |
| 1778037663 | 25.56° C | 100% | 1006.4 hPa | 0 mm | 0 m/s | 0 W/m² | - |
| 1778037605 | 25.56° C | 100% | 1006.4 hPa | 0 mm | 0 m/s | 0 W/m² | - |
| 1778037542 | 25.56° C | 100% | 1006.4 hPa | 0 mm | 0.45 m/s, 185° | 0 W/m² | - |
| 1778037482 | 25.56° C | 100% | 1006.4 hPa | 0 mm | 0.89 m/s, 140° | 0 W/m² | - |
| 1778037423 | 25.56° C | 100% | 1006.4 hPa | 0 mm | 1.34 m/s, 158° | 0 W/m² | - |
| 1778037362 | 25.56° C | 100% | 1006.4 hPa | 0 mm | 1.34 m/s, 154° | 0 W/m² | - |
| 1778037302 | 25.56° C | 100% | 1006.4 hPa | 0 mm | 0.89 m/s, 152° | 0 W/m² | - |
| 1778037243 | 25.56° C | 100% | 1006.4 hPa | 0 mm | 0.45 m/s, 157° | 0 W/m² | - |
| 1778037179 | 25.56° C | 100% | 1006.4 hPa | 0 mm | 0.89 m/s, 157° | 0 W/m² | - |
| 1778037115 | 25.56° C | 100% | 1006.3 hPa | 0 mm | 0.45 m/s, 157° | 0 W/m² | - |
| 1778037054 | 25.56° C | 100% | 1006.3 hPa | 0 mm | 0.45 m/s, 137° | 0 W/m² | - |
| 1778036989 | 25.56° C | 100% | 1006.3 hPa | 0 mm | 0.89 m/s, 152° | 0 W/m² | - |
| 1778036929 | 25.56° C | 100% | 1006.3 hPa | 0 mm | 1.34 m/s, 131° | 0 W/m² | - |
| 1778036866 | 25.56° C | 100% | 1006.2 hPa | 0 mm | 0.89 m/s, 161° | 0 W/m² | - |
* Rain latest hour (hover to see other rain measurements)
** Current wind speed in m/s (hover to see current wind gust speed)